Location: Keyno
(32.9371°N, 86.1091°W)
Time: 00:31:26
(UTC+00:00)

Daily predictions for brighter satellites

Satellite Brightness Start Highest point End
(mag) Time Altitude Azimuth Time Altitude Azimuth Time Altitude Azimuth
BREEZE M DEB (TANK) 4.5 00:49:35 10° NW 00:54:39 88° SW 01:14:47 10° SE
Aureole 2 Rocket 2.0 01:12:55 10° S 01:16:01 73° ESE 01:18:59 10° NNE
Lacrosse 5 1.9 01:12:13 10° NW 01:17:17 84° NE 01:22:20 10° SE
Cosmos 2221 Rocket 3.7 01:13:25 10° S 01:17:53 63° E 01:22:23 10° NNE
STARLINK-1124 3.7 01:13:45 10° NW 01:17:53 70° NE 01:21:59 10° SE
Cosmos 1452 Rocket 4.1 01:14:34 10° SSW 01:19:47 64° WNW 01:25:03 10° N
Cosmos 1833 Rocket 2.7 01:14:54 10° NNW 01:20:33 86° ENE 01:26:10 10° SSE
USA 267 3.3 01:15:00 10° SE 01:21:34 89° NE 01:28:10 10° NW
Sakura Rocket 4.0 01:17:22 10° W 01:22:11 54° S 01:28:52 10° ESE
STARLINK-1122 3.6 01:18:42 10° NW 01:22:51 78° NE 01:26:58 10° SE
H-2A ROCKET BODY 3.6 01:22:00 10° S 01:25:13 20° SE 01:32:21 10° E
NOSS 2-2 (C) 3.4 01:21:59 10° SW 01:25:35 70° WNW 01:29:12 10° NNE
STARLINK-1126 3.6 01:23:20 10° NW 01:27:29 86° NE 01:31:37 10° SE
CZ-2C R/B 4.0 01:23:04 10° NNE 01:27:29 48° E 01:31:58 10° S
STARLINK-52 2.9 01:26:54 10° SW 01:30:05 88° SE 01:33:19 10° NE
ATLAS 2AS CENTAUR R/B 3.8 01:24:40 10° SSE 01:31:00 28° ESE 01:37:29 10° NE
Cosmos 2297 3.8 01:25:43 10° SSW 01:31:23 90° N 01:37:07 10° NNE
STARLINK-1082 3.6 01:28:40 10° NW 01:32:49 84° SW 01:36:46 11° SE
Okean 3 3.8 01:29:30 10° SSW 01:33:47 73° W 01:38:05 10° N
Okean 2 Rocket 3.3 01:30:26 10° N 01:34:44 53° E 01:39:01 10° SSE
Meteor 2-4 Rocket 4.1 01:31:21 10° SSW 01:36:39 65° W 01:41:59 10° N
COSMOS 2406 4.5 01:31:25 10° NW 01:36:45 40° WSW 01:42:01 10° S
Cosmos 2369 Rocket 3.1 01:32:34 10° SSE 01:37:18 28° ESE 01:42:00 10° NE
STARLINK-1100 3.7 01:33:36 10° NW 01:37:44 75° SW 01:41:30 12° SE
Sich 1 Rocket 3.8 01:33:24 10° N 01:37:59 78° W 01:42:30 10° S
Cosmos 2082 Rocket 2.2 01:33:06 10° NNW 01:38:49 73° ENE 01:44:27 10° SSE
Cosmos 1300 Rocket 3.8 01:35:53 10° N 01:40:13 53° E 01:44:30 10° SSE
STARLINK-1083 3.8 01:38:36 10° NW 01:42:42 66° SW 01:46:17 13° SSE
Resurs 01 Rocket 2.8 01:40:37 13° ESE 01:43:46 26° ENE 01:47:28 10° NNE
SL-4 R/B 3.8 01:46:01 10° WNW 01:47:33 14° WSW 01:49:01 10° SW
STARLINK-1125 4.0 01:43:37 10° NW 01:47:41 58° SW 01:51:05 14° SSE
Meteor 1-12 Rocket 4.2 01:44:06 10° N 01:49:49 77° E 01:55:36 10° SSE
Abrixas rocket 3.1 01:47:39 10° NNW 01:50:22 33° NE 01:52:13 16° E
Cosmos 2151 Rocket 3.8 01:46:21 10° N 01:50:49 56° E 01:54:45 13° SSE
STARLINK-1339 4.4 01:47:33 10° S 01:50:52 26° SE 01:54:11 10° ENE
BREEZE-M DEB 3.4 01:49:21 10° WSW 01:51:25 36° NW 01:53:47 10° NE
STARLINK-1109 4.2 01:48:37 10° NW 01:52:39 51° SW 01:55:52 15° SSE
ATLAS 3B CENTAUR R/B 4.4 01:31:27 10° WSW 01:53:48 72° S 02:03:33 10° E
Resurs 1-3 3.8 01:51:16 14° SSE 01:54:54 54° ENE 01:59:12 10° N
Ariane Rocket 3.9 01:50:28 10° S 01:55:22 49° W 02:00:18 10° NNW
STARLINK-1377 4.3 01:51:55 10° S 01:55:23 29° SE 01:58:51 10° ENE
Cosmos 1378 Rocket 3.7 01:52:11 10° S 01:56:27 52° E 02:00:42 10° NNE
Cosmos 1674 Rocket 3.5 01:52:36 10° S 01:56:57 74° E 02:01:21 10° N
MOS 1 Rocket 4.0 01:53:06 10° N 01:57:15 51° WNW 02:01:26 10° SSW
STARLINK-1091 4.4 01:53:37 10° WNW 01:57:35 46° SW 02:00:37 16° SSE
FREGAT/IRIS 4.4 01:55:55 10° SSW 01:58:12 26° W 02:00:31 10° NW
SJ-6B 3.3 01:55:21 10° S 01:58:58 53° W 02:02:39 10° NNW
FALCON 9 DEB 3.2 01:55:51 10° SW 01:59:15 79° NW 02:02:41 10° NE
Nadezhda 4 Rocket 4.2 01:53:29 10° SSE 01:59:18 47° E 02:05:07 10° NNE
STARLINK-1353 4.2 01:56:08 10° SSW 01:59:42 32° SE 02:03:16 10° ENE
Cosmos 1110 Rocket 4.2 01:55:01 10° SSW 02:00:11 72° WNW 02:05:21 10° NNE
MetOp-A 4.1 01:55:12 10° SSE 02:00:33 85° ENE 02:05:56 10° NNW
ATLAS 5 CENTAUR R/B 4.3 01:50:14 10° S 02:02:18 29° SE 02:06:41 10° ENE
Cosmos 1741 Rocket 4.0 01:57:57 10° NNW 02:03:12 84° ENE 02:07:27 16° SSE
STARLINK-1375 4.0 02:00:24 10° SSW 02:04:03 35° SE 02:07:44 10° ENE
Cosmos 1066 Rocket 4.0 02:00:55 10° S 02:06:15 71° E 02:11:34 10° NNE
STARLINK-1350 3.9 02:04:38 10° SSW 02:08:23 40° SE 02:12:07 10° ENE
Meteor 1-23 Rocket 4.2 02:03:12 10° S 02:08:52 78° E 02:14:29 10° N
Cosmos 1850 Rocket 4.1 02:04:03 10° NNW 02:09:24 80° WSW 02:13:46 15° S
Cosmos 1331 Rocket 4.5 02:06:40 10° SSW 02:11:45 62° WNW 02:16:54 10° N
GPS 2-04 Rocket1 2.6 02:08:49 10° W 02:12:08 51° SSW 02:13:23 32° SE
STARLINK-1352 3.8 02:08:44 10° SSW 02:12:32 44° SE 02:16:20 10° ENE
STARLINK-1144 4.3 02:10:55 10° NNW 02:14:53 43° NE 02:16:51 25° E
Intercosmos 24 4.2 02:11:48 10° N 02:15:37 76° W 02:20:13 13° S
Cosmos 2279 Rocket 4.1 02:09:55 10° N 02:16:09 79° W 02:22:15 10° S
STARLINK-1368 3.6 02:13:20 10° SSW 02:17:12 50° SE 02:21:05 10° NE
STARLINK-1103 4.2 02:15:52 10° NNW 02:19:52 47° NE 02:21:38 28° E
STARLINK-1369 3.5 02:17:42 10° SSW 02:21:38 56° SE 02:25:33 10° NE
Cosmos 1975 Rocket 3.9 02:22:09 29° ESE 02:23:02 32° E 02:26:56 10° NNE
STARLINK-1101 4.0 02:20:48 10° NW 02:24:52 53° NE 02:26:26 33° ESE
STARLINK-1372 3.4 02:21:48 10° SSW 02:25:45 62° SE 02:29:42 10° NE
SL-8 R/B 4.2 02:21:29 10° NW 02:26:09 50° NE 02:28:31 26° E
Cosmos 1302 Rocket 3.9 02:20:54 10° SSW 02:26:11 87° ESE 02:31:30 10° NNE
CENTAUR R/B 4.3 02:20:05 10° N 02:27:14 31° NE 02:32:42 17° E
STARLINK-1102 3.8 02:25:45 10° NW 02:29:50 59° NE 02:31:12 38° ESE
SPOT 3 Rocket 4.0 02:25:46 14° S 02:30:03 57° W 02:35:08 10° NNW
STARLINK-1378 3.4 02:26:30 10° SW 02:30:30 70° SE 02:34:29 10° NE
Cosmos 292 Rocket 3.8 02:28:23 24° S 02:31:10 57° ESE 02:35:55 10° NNE
Cosmos 1242 Rocket 4.2 02:34:23 21° ENE 02:34:23 21° ENE 02:36:20 10° NE
SPOT 1/Viking Rocket 4.5 02:32:24 27° ESE 02:33:54 32° ENE 02:38:27 10° N
COSMOS 2455 3.4 02:32:32 30° SE 02:34:21 36° ESE 02:39:47 10° NE
STARLINK-1111 3.7 02:30:44 10° NW 02:34:51 67° NE 02:36:00 43° ESE
STARLINK-1379 3.4 02:30:59 10° SW 02:34:59 78° SE 02:39:00 10° NE
STARLINK-1329 3.4 02:34:47 10° SW 02:38:48 86° SE 02:42:51 10° NE
Cosmos 2263 4.1 02:33:35 10° SSW 02:39:08 73° ESE 02:44:44 10° NNE
STARLINK-1073 3.6 02:35:41 10° NW 02:39:49 75° NE 02:40:47 50° ESE
CZ-2C R/B 4.5 02:35:10 10° N 02:40:04 32° WNW 02:44:56 10° SW
ASTRO E2 3.6 02:37:30 10° W 02:41:02 32° SSW 02:41:02 32° SSW
BREEZE-M DEB (TANK) 3.5 02:39:30 10° WSW 02:41:50 49° NNW 02:47:03 10° NE
Cosmos 1992 Rocket 4.3 02:42:12 39° SE 02:43:11 43° ESE 02:48:05 10° NNE
STARLINK-1362 3.5 02:39:19 10° SW 02:43:20 86° NW 02:47:23 10° NE
Cosmos 1943 Rocket 3.2 02:39:17 10° SW 02:44:34 47° WNW 02:49:56 10° N
STARLINK-1121 3.5 02:40:38 10° NW 02:44:47 84° NE 02:45:34 58° SE
STARLINK-1320 4.1 02:42:18 10° WSW 02:45:16 43° NW 02:48:16 10° NNE
STARLINK-1322 4.1 02:42:39 10° WSW 02:45:37 43° NW 02:48:37 10° NNE
STARLINK-1324 4.1 02:42:58 10° WSW 02:45:57 42° NW 02:48:56 10° NNE
STARLINK-1294 4.1 02:43:19 10° WSW 02:46:16 42° NW 02:49:14 10° NNE
STARLINK-1261 4.1 02:43:40 10° WSW 02:46:39 41° NW 02:49:37 10° NNE
STARLINK-1325 4.2 02:44:01 10° WSW 02:46:59 41° NW 02:49:58 10° NNE
STARLINK-1333 4.2 02:44:24 10° WSW 02:47:21 41° NW 02:50:19 10° NNE
STARLINK-1334 4.2 02:44:41 10° WSW 02:47:38 40° NW 02:50:36 10° NNE
STARLINK-1373 3.6 02:43:48 10° SW 02:47:48 78° NW 02:51:50 10° NE
STARLINK-1326 4.2 02:45:01 10° WSW 02:47:57 40° NW 02:50:56 10° NNE
STARLINK-1323 4.2 02:45:24 10° WSW 02:48:21 40° NW 02:51:19 10° NNE
STARLINK-1349 4.3 02:45:42 10° WSW 02:48:39 39° NW 02:51:36 10° NNE
STARLINK-1336 4.3 02:46:02 10° WSW 02:48:58 39° NW 02:51:55 10° NNE
STARLINK-1331 4.3 02:46:25 10° WSW 02:49:21 38° NW 02:52:17 10° NNE
STARLINK-1344 4.3 02:46:43 10° WSW 02:49:39 38° NW 02:52:36 10° NNE
STARLINK-1106 3.5 02:45:37 10° NW 02:49:46 87° SW 02:50:20 65° SE
STARLINK-1343 4.3 02:47:07 10° WSW 02:50:02 38° NW 02:52:58 10° NNE
STARLINK-1346 4.4 02:47:24 10° WSW 02:50:19 38° NW 02:53:16 10° NNE
Cosmos 1092 Rocket 3.8 02:46:49 26° S 02:50:26 79° E 02:56:36 10° N
STARLINK-1328 4.4 02:47:50 10° WSW 02:50:46 37° NW 02:53:41 10° NNE
STARLINK-1354 4.4 02:48:08 10° WSW 02:51:03 37° NW 02:53:58 10° NNE
STARLINK-1347 4.4 02:48:25 10° WSW 02:51:20 36° NW 02:54:15 10° NNE
STARLINK-1357 4.4 02:48:52 10° WSW 02:51:46 36° NW 02:54:41 10° NNE
STARLINK-1335 4.5 02:49:09 10° WSW 02:52:03 36° NW 02:54:58 10° NNE
Landsat 7 3.9 02:51:22 48° SE 02:52:22 60° ENE 02:57:04 10° N
STARLINK-1327 4.5 02:49:31 10° WSW 02:52:24 35° NW 02:55:18 10° NNE
STARLINK-1390 3.8 02:48:28 10° SW 02:52:29 70° NW 02:56:31 10° NE
NOSS 3-4 (A) 3.3 02:47:59 10° SSW 02:53:52 84° WNW 03:00:00 10° NNE
NOSS 3-4 (C) 3.3 02:48:04 10° SSW 02:53:58 85° WNW 03:00:06 10° NNE
STARLINK-1112 3.5 02:50:37 10° NW 02:54:45 78° SW 02:55:08 69° S
ATLAS CENTAUR R/B 1.6 02:51:13 10° SSW 02:55:45 73° WNW 03:00:00 10° NNE
IGS 5A 3.4 02:55:29 62° ESE 02:55:49 65° ENE 02:59:56 10° N
Okean 2 3.3 02:55:04 51° SSW 02:56:02 82° W 03:00:13 10° N
Okean 1 Rocket 3.6 02:53:48 10° NNW 02:58:06 53° W 02:59:40 34° SSW
Cosmos 1455 Rocket 3.9 02:54:21 10° NNE 02:57:57 34° ENE 02:57:57 34° ENE
STARLINK-1365 4.1 02:54:29 10° SW 02:58:29 59° NW 03:02:30 10° NE
Lacrosse 5 4.4 02:58:37 10° WSW 02:59:35 10° WSW 03:00:32 10° SW
STARLINK-1128 3.6 02:55:35 10° NW 02:59:42 69° SW 02:59:54 67° SSW
ERS-1 Rocket 3.5 02:59:07 39° E 02:59:44 40° ENE 03:04:25 10° N
Cosmos 2195 Rocket 4.4 02:56:44 31° S 02:59:56 82° E 03:06:13 10° N
CARTOSAT-1 4.4 03:02:33 37° ENE 03:02:33 37° ENE 03:06:20 10° N
Cosmos 1656 Rocket 3.5 03:00:25 31° SSW 03:03:14 81° ESE 03:08:49 10° NNE
STARLINK-1113 3.7 03:00:36 10° NW 03:04:40 61° SW 03:04:42 61° SW
Cosmos 1766 3.2 03:03:50 10° N 03:07:50 78° W 03:07:53 78° WSW
STARLINK-1338 4.5 03:04:34 10° WSW 03:08:24 46° NW 03:12:15 10° NNE
Cosmos 1627 Rocket 4.4 03:05:51 36° S 03:08:43 86° E 03:15:07 10° N
STARLINK-1119 4.0 03:05:36 10° NW 03:09:28 53° WSW 03:09:28 53° WSW
STARLINK-1114 4.3 03:10:37 10° NW 03:14:16 46° WSW 03:14:16 46° WSW
Meteor 2-13 Rocket 4.3 03:12:39 45° S 03:14:41 82° E 03:20:52 10° N
Cosmos 968 Rocket 3.9 03:12:57 10° N 03:17:53 46° ENE 03:17:59 46° ENE
Meteor 1-21 4.1 03:18:00 54° S 03:19:22 88° E 03:24:59 10° N
Resurs 01 Rocket 3.7 03:18:10 16° SW 03:20:09 22° W 03:23:36 10° NW
Cosmos 2084 4.3 03:22:08 42° NE 03:22:08 42° NE 03:25:11 10° NE
Cosmos 2369 Rocket 3.8 03:16:05 10° SW 03:21:07 33° WNW 03:26:10 10° N
ATLAS 2AS CENTAUR R/B 3.6 03:13:48 10° SW 03:21:32 58° WNW 03:29:24 10° NNE
Milstar 3 Cent rocket 3.8 03:16:15 10° WSW 03:24:05 66° SSE 03:41:27 10° E
Cosmos 1867 4.3 03:21:15 10° NNW 03:26:20 38° ENE 03:26:48 38° ENE
Cosmos 2026 Rocket 4.2 03:25:23 36° SSW 03:28:04 69° W 03:34:25 10° N
NOSS 3-2 (A) 4.2 03:21:37 10° NW 03:29:34 75° WSW 03:32:28 46° S
SPOT 5 2.9 03:34:48 81° ESE 03:34:58 82° ENE 03:40:20 10° N
Cosmos 1544 Rocket 4.1 03:31:34 10° N 03:34:57 51° NNE 03:34:57 51° NNE
Terra 2.2 03:38:15 55° NE 03:38:15 55° NE 03:42:20 10° N
USA 238 DEB 4.1 03:37:22 10° NW 03:44:32 58° WSW 03:46:14 48° SSW
USA 238 4.1 03:37:28 10° NW 03:44:39 59° WSW 03:46:20 49° SSW
Cosmos 1470 4.2 03:42:16 10° N 03:44:32 34° N 03:44:32 34° N
Cosmos 1553 Rocket 3.8 03:40:21 10° N 03:46:32 70° E 03:46:44 70° E
Cosmos 1025 Rocket 4.1 03:58:03 43° NNW 03:58:03 43° NNW 04:01:11 10° N
VEP-3 4.3 03:52:12 10° WSW 04:06:31 10° E 03:53:40 18° SW
Cosmos 2266 Rocket 4.1 04:01:25 61° ENE 04:01:25 61° ENE 04:06:48 10° NNE
Cosmos 1503 Rocket 4.2 03:58:18 10° NNW 04:02:59 69° NNW 04:02:59 69° NNW
RESURS DK-1 4.2 04:05:59 28° N 04:05:59 28° N 04:08:05 10° NNE
Cosmos 1655 Rocket 3.9 04:08:49 75° WSW 04:09:04 77° W 04:15:21 10° N
SeaSat 1 4.4 04:05:19 10° NE 04:06:53 19° NE 04:06:53 19° NE
Cosmos 1953 4.3 04:08:21 10° N 04:10:06 25° N 04:10:06 25° N
ATLAS 3B CENTAUR R/B 3.4 04:04:38 10° W 04:17:40 52° SSW 04:17:40 52° SSW
CENTAUR R/B 3.3 04:10:09 10° NW 04:18:31 66° WSW 04:19:52 59° SSW
COSMOS 2455 4.5 04:15:31 12° WSW 04:20:14 30° WNW 04:25:28 10° N
ATLAS 3B R/B 2.7 04:20:02 10° NNW 04:26:54 70° ENE 04:27:03 70° ENE
Cosmos 2297 Rocket 4.1 04:34:24 10° NNE 04:38:18 19° ENE 04:38:20 19° ENE
CZ-4C R/B 3.9 04:47:00 21° NE 04:47:00 21° NE 04:48:57 10° NE
SJ 16-02 4.2 04:49:53 10° NE 04:50:26 11° NE 04:50:26 11° NE
Cosmos 2098 Rocket 4.4 04:54:00 70° W 04:54:07 70° W 05:01:35 10° N
Timation 2 Rocket 4.4 05:04:53 10° NNW 05:09:37 55° NNW 05:09:37 55° NNW
Cosmos 2227 Rocket 3.6 05:11:18 10° N 05:15:34 32° NE 05:15:34 32° NE
SeaSat 1 4.4 05:43:16 10° N 05:46:39 23° NW 05:46:39 23° NW
Cosmos 1980 Rocket 3.4 05:57:05 35° NE 05:57:05 35° NE 06:00:27 10° NNE
Lacrosse 4 Rocket 4.0 05:54:42 10° N 05:56:09 19° N 05:56:09 19° N
FALCON 9 R/B 3.4 06:03:08 49° E 06:03:08 49° E 06:13:39 10° E
Cosmos 2297 Rocket 3.6 06:17:09 10° NNW 06:20:07 30° NW 06:20:07 30° NW
SJ 16-02 3.9 06:26:23 10° NNW 06:27:24 16° NNW 06:27:24 16° NNW
BREEZE M DEB (TANK) 4.2 06:31:41 73° SW 06:32:42 90° NW 07:00:06 10° NE
CZ-4C R/B 4.1 06:32:09 18° NW 06:32:42 18° NW 06:36:32 10° N
Cosmos 2322 Rocket 3.9 06:35:08 24° E 06:35:08 24° E 06:38:30 10° NE
Cosmos 1697 Rocket 4.2 06:41:27 27° NW 06:41:27 27° NW 06:45:42 10° N
Resurs 1-4 Rocket 3.2 06:44:09 10° NNE 06:48:08 36° ENE 06:48:08 36° ENE
Cosmos 2181 Rocket 4.0 06:51:12 10° N 06:57:15 80° N 06:57:15 80° N
Cosmos 2227 Rocket 4.2 06:55:34 10° NW 06:57:21 18° WNW 06:57:21 18° WNW
Cosmos 2221 4.5 07:03:33 10° NNE 07:06:44 24° ENE 07:06:44 24° ENE
SL-16 R/B 2.5 07:10:10 62° ENE 07:10:10 62° ENE 07:15:06 10° NNE
Cosmos 1241 Rocket 4.4 07:11:44 72° NW 07:11:44 72° NW 07:17:38 10° NNE
SL-16 R/B 3.0 07:10:44 46° ESE 07:11:59 54° ENE 07:17:58 10° N
GP-B 4.4 07:10:01 10° N 07:12:45 37° N 07:12:45 37° N
CZ-2D R/B 2.3 07:15:47 10° NNE 07:20:19 67° NNE 07:20:19 67° NNE
Cosmos 2360 Rocket 2.9 07:31:03 42° ESE 07:31:20 42° ESE 07:36:36 10° NE
Nadezhda 3 Rocket 4.4 07:30:28 10° N 07:36:42 58° E 07:38:42 41° SE
USA 215 3.1 07:37:06 60° SSE 07:38:21 76° SW 07:44:55 10° NW
Cosmos 1980 Rocket 4.1 07:38:49 17° WNW 07:39:17 17° WNW 07:42:53 10° NNW
Cosmos 1892 4.1 07:41:51 36° NNE 07:41:51 36° NNE 07:44:17 10° NNE
UNK 4.2 07:45:02 54° NNW 07:45:02 54° NNW 07:48:37 10° NNW
CZ-4B R/B 3.5 07:39:06 10° N 07:44:19 83° NW 07:44:19 83° NW
Cosmos 2333 Rocket 4.2 07:43:40 15° SE 07:45:49 19° E 07:49:37 10° ENE
Cosmos 1295 Rocket 4.5 07:46:09 62° SSE 07:47:18 81° E 07:53:37 10° N
Cosmos 2219 Rocket 4.2 07:46:47 14° SE 07:49:05 18° E 07:52:45 10° ENE
STARLINK-1016 4.4 07:51:22 48° NE 07:51:22 48° NE 07:54:27 10° NE
AQUA 4.0 07:49:37 10° N 07:53:56 62° NW 07:53:56 62° NW
STARLINK-1008 4.2 07:56:10 55° NE 07:56:10 55° NE 07:59:26 10° NE
Cosmos 1869 4.3 07:52:28 10° N 07:55:04 41° N 07:55:04 41° N
ADEOS II 2.2 07:52:22 10° NNE 07:57:37 67° ESE 07:58:25 58° SSE
IRS-1D 3.3 07:53:48 10° NNE 07:59:03 89° W 07:59:25 77° SSW
STARLINK-1014 4.1 08:00:58 59° NNE 08:00:58 59° NNE 08:04:23 10° NE
Cosmos 2263 Rocket 2.0 07:56:34 10° NNW 08:02:07 71° WSW 08:02:25 69° SW
Lacrosse 5 rocket 3.3 08:04:34 20° ESE 08:04:34 20° ESE 08:07:16 10° ENE
ARIANE 5 R/B 3.3 08:00:12 10° NNE 08:04:57 43° E 08:06:23 34° SE
STARLINK-1025 3.9 08:05:44 63° N 08:05:44 63° N 08:09:23 10° NE
Cosmos 1408 3.3 08:06:50 53° NNE 08:06:50 53° NNE 08:09:48 10° N
Cosmos 1076 Rocket 3.8 08:07:00 58° NW 08:07:00 58° NW 08:10:48 10° N
Cosmos 2151 3.7 08:06:52 43° ESE 08:07:26 46° E 08:11:33 10° NNE
NPP 4.3 08:03:36 10° N 08:08:34 39° WNW 08:08:54 39° W
Cosmos 2341 Rocket 4.0 08:07:21 47° S 08:09:23 86° E 08:15:45 10° N
STARLINK-1017 3.9 08:10:29 62° NNW 08:10:29 62° NNW 08:14:19 10° NE
BREEZE M DEB (TANK) 3.4 08:11:17 29° NW 08:13:05 88° NE 08:22:57 10° SE
Cosmos 1825 2.6 08:14:43 57° E 08:14:43 57° E 08:18:20 10° NNE
IRS-1C 4.1 08:09:27 10° NNE 08:14:49 80° ESE 08:16:13 51° S
STARLINK-1023 3.9 08:15:16 58° NW 08:15:16 58° NW 08:19:15 10° NE
Okean 3 Rocket 4.4 08:14:19 35° SE 08:15:39 46° E 08:20:00 10° NNE
Cosmos 2322 Rocket 3.0 08:16:57 33° W 08:17:46 35° WNW 08:22:53 10° N
In-Cosmos 22 Rocket 4.5 08:18:09 46° WSW 08:18:49 48° W 08:24:08 10° N
STARLINK-1007 4.0 08:20:05 52° NW 08:20:12 52° NW 08:24:15 10° NE
STARLINK-1048 4.1 08:24:51 45° WNW 08:25:10 46° NW 08:29:11 10° NNE
SL-19 R/B 4.2 08:22:35 10° NNE 08:26:31 65° ESE 08:26:43 63° SE
STARLINK-60 3.9 08:25:04 10° NNW 08:28:09 48° NE 08:31:15 10° ESE
SL-8 Rocket 3.9 08:25:26 35° S 08:28:18 89° E 08:34:35 10° N
Resurs 1-4 Rocket 3.6 08:24:44 10° NNW 08:28:37 21° WNW 08:29:13 21° WNW
STARLINK-1049 4.3 08:29:39 40° WNW 08:30:11 42° NW 08:34:07 10° NNE
Cosmos 1125 Rocket 4.2 08:25:27 10° NW 08:29:46 36° W 08:29:46 36° W
ERS-1 4.5 08:24:58 10° NNE 08:30:12 85° ESE 08:32:06 41° S
USA 229 DEB 3.8 08:24:30 10° NW 08:31:53 68° WSW 08:39:30 10° SSE
USA 229 3.8 08:24:36 10° NW 08:31:59 69° WSW 08:39:37 10° SSE
NOSS 3-1 (C) 4.2 08:24:52 10° NW 08:32:48 63° WSW 08:41:33 10° SSE
Cosmos 2218 Rocket 4.1 08:29:40 29° S 08:33:10 81° E 08:39:35 10° N
SL-08 R/B 3.4 08:30:54 24° SSE 08:33:37 72° ENE 08:38:13 10° N
STARLINK-1051 4.5 08:34:24 35° WNW 08:35:09 38° NW 08:39:02 10° NNE
GEOS 3 Rocket 3.6 08:32:03 10° SE 08:37:11 81° NE 08:42:26 10° NNW
Spot 4 Rocket 4.2 08:32:05 10° NNE 08:37:12 67° ESE 08:39:50 29° S
NOSS 3-1 (A) 4.1 08:33:09 10° NNW 08:41:12 83° WSW 08:50:08 10° SSE
Cosmos 1818 4.4 08:39:19 24° S 08:42:12 43° ESE 08:47:19 10° NE
STARLINK-1057 4.4 08:41:32 35° SSE 08:42:28 41° SE 08:46:22 10° ENE
Cosmos 1538 Rocket 4.0 08:40:49 38° SSW 08:42:57 83° WNW 08:48:21 10° NNE
Cosmos 2221 4.2 08:41:14 10° NW 08:43:34 19° WNW 08:43:34 19° WNW
Cosmos 2237 Rocket 4.4 08:42:19 10° SE 08:46:10 19° E 08:50:01 10° ENE
STARLINK-1034 4.2 08:46:19 36° S 08:47:25 46° SE 08:51:24 10° NE
STARLINK-1068 4.0 08:51:06 37° S 08:52:22 53° SE 08:56:25 10° NE
SL-16 R/B 4.2 08:52:02 12° W 08:54:04 14° NW 08:57:03 10° NNW
SL-16 R/B 3.9 08:55:50 19° W 08:55:50 19° W 09:00:01 10° NW
Cosmos 1844 Rocket 3.1 08:51:02 10° NNW 08:56:35 63° ENE 09:02:04 10° SSE
Meteor 2-12 Rocket 4.4 08:53:34 25° SSW 08:57:10 71° W 09:03:12 10° N
STARLINK-1027 3.9 08:55:54 36° SSW 08:57:21 60° SE 09:01:26 10° NE
COSMOS 2428 2.8 08:54:57 23° S 08:58:33 75° ESE 09:04:13 10° NNE
Delta 2 Rocket 4.2 08:57:44 28° SW 09:00:30 45° S 09:06:11 10° ESE
STARLINK-29 4.1 08:58:06 10° NNW 09:01:11 45° NE 09:04:13 10° ESE
STARLINK-1060 3.7 09:00:39 34° SSW 09:02:18 68° SE 09:06:25 10° NE
Meteor 1-28 Rocket 3.0 09:00:23 27° S 09:02:21 72° W 09:06:05 10° NNW
Cosmos 1339 Rocket 4.4 08:57:53 10° N 09:03:59 70° W 09:09:58 11° S
MSX 4.3 08:58:21 10° NNE 09:04:01 60° E 09:09:40 10° S
Cosmos 1328 Rocket 3.9 09:01:57 10° N 09:06:18 64° E 09:10:35 10° SSE
STARLINK-1030 3.6 09:05:25 32° SSW 09:07:15 76° SE 09:11:23 10° NE
Landsat 5 4.1 09:05:30 10° SSE 09:09:57 64° ENE 09:14:23 10° N
ERS-2 2.0 09:08:00 18° S 09:10:33 70° WSW 09:14:13 10° NNW
STARLINK-1020 3.5 09:10:14 29° SW 09:12:15 86° SE 09:16:25 10° NE
CZ-2C R/B 4.0 09:09:39 10° NNE 09:14:22 34° E 09:19:00 10° SSE
Cosmos 2360 Rocket 3.7 09:12:49 16° W 09:15:27 22° WNW 09:19:47 10° N
STARLINK-1052 3.5 09:15:01 27° SW 09:17:13 85° NW 09:21:22 10° NE
Cosmos 1606 2.5 09:14:47 10° N 09:18:34 73° W 09:22:08 11° S
SL-4 R/B 2.3 09:14:55 10° NW 09:19:31 52° SW 09:23:49 10° SSE
Cosmos 2366 rocket 4.5 09:16:20 20° SW 09:20:12 42° W 09:26:08 10° N
COSMOS 2441 4.5 09:18:19 10° NNE 09:23:14 79° ESE 09:28:06 10° S
CZ-4B R/B 3.8 09:24:30 10° SE 09:26:59 23° ENE 09:29:30 10° NNE
STARLINK-1033 3.7 09:24:34 22° SW 09:27:10 68° NW 09:31:17 10° NE
Cosmos 1500 Rocket 3.8 09:23:23 10° S 09:27:48 71° E 09:32:15 10° N
CZ-2C R/B 3.2 09:25:25 10° N 09:29:02 43° WNW 09:31:33 18° SW
Cosmos 2333 Rocket 2.6 09:25:41 18° SW 09:29:37 47° WNW 09:35:04 10° N
Cosmos 1633 2.6 09:26:28 10° S 09:29:57 80° E 09:33:34 10° N
USA 32 4.2 09:25:47 10° S 09:30:59 76° E 09:36:14 10° N
Cosmos 1408 Rocket 4.0 09:28:38 18° SW 09:31:32 43° W 09:35:38 10° N
STARLINK-1031 3.8 09:29:22 19° WSW 09:32:10 61° NW 09:36:16 10° NE
Cosmos 2219 Rocket 2.6 09:28:31 17° SW 09:32:33 47° WNW 09:37:57 10° N
STARLINK-52 2.8 09:33:16 10° NW 09:36:28 75° SW 09:39:39 10° SE
ADEOS II 4.1 09:34:29 10° NW 09:36:40 13° WNW 09:38:50 10° W
STARLINK-1024 4.0 09:34:08 17° WSW 09:37:08 54° NW 09:41:12 10° NE
NOSS 0 Rocket 4.0 09:33:00 10° SSW 09:39:08 83° ESE 09:45:18 10° NNE
STARLINK-1444 4.0 09:39:51 18° SSW 09:39:51 18° SSW 09:41:07 10° S
Cosmos 1821 Rocket 4.0 09:33:22 10° S 09:39:43 78° W 09:46:02 10° N
STARLINK-1452 4.0 09:40:29 17° SSW 09:40:29 17° SSW 09:41:45 10° S
STARLINK-1392 4.1 09:41:01 16° SSW 09:41:01 16° SSW 09:42:03 10° S
IDEFIX/ARIANE 42P 3.2 09:35:23 10° N 09:40:14 39° WNW 09:44:41 12° SW
STARLINK-1399 4.1 09:41:08 16° SSW 09:41:08 16° SSW 09:42:13 10° S
STARLINK-1393 4.1 09:41:10 16° SSW 09:41:10 16° SSW 09:42:15 10° S
STARLINK-1394 4.1 09:41:12 16° SSW 09:41:12 16° SSW 09:42:17 10° S
STARLINK-1395 4.1 09:41:16 16° SSW 09:41:16 16° SSW 09:42:21 10° S
STARLINK-1408 4.1 09:41:19 16° SSW 09:41:19 16° SSW 09:42:21 10° S
STARLINK-1414 4.1 09:41:17 16° SSW 09:41:17 16° SSW 09:42:22 10° S
STARLINK-1397 4.1 09:41:16 16° SSW 09:41:16 16° SSW 09:42:22 10° S
STARLINK-1396 4.1 09:41:16 16° SSW 09:41:16 16° SSW 09:42:22 10° S
STARLINK-1406 4.1 09:41:26 16° SSW 09:41:26 16° SSW 09:42:28 10° S
STARLINK-1416 4.1 09:41:23 16° SSW 09:41:23 16° SSW 09:42:30 10° S
STARLINK-1404 4.1 09:41:23 16° SSW 09:41:23 16° SSW 09:42:31 10° S
STARLINK-1415 4.1 09:41:25 16° SSW 09:41:25 16° SSW 09:42:33 10° S
STARLINK-1401 4.1 09:41:29 16° SSW 09:41:29 16° SSW 09:42:37 10° S
STARLINK-1450 4.0 09:41:30 16° SSW 09:41:30 16° SSW 09:42:40 10° S
STARLINK-1417 4.0 09:41:32 16° SSW 09:41:32 16° SSW 09:42:42 10° S
STARLINK-1402 4.1 09:41:33 16° SSW 09:41:33 16° SSW 09:42:43 10° S
STARLINK-1419 4.1 09:41:35 16° SSW 09:41:35 16° SSW 09:42:44 10° S
STARLINK-1413 4.0 09:41:34 16° SSW 09:41:34 16° SSW 09:42:44 10° S
STARLINK-1422 4.1 09:41:41 16° SSW 09:41:41 16° SSW 09:42:50 10° S
STARLINK-1440 4.1 09:41:47 16° SSW 09:41:47 16° SSW 09:42:51 10° S
STARLINK-1453 4.0 09:41:43 17° SSW 09:41:43 17° SSW 09:42:54 10° S
STARLINK-1420 4.0 09:41:46 16° SSW 09:41:46 16° SSW 09:42:57 10° S
STARLINK-1398 4.0 09:41:46 17° SSW 09:41:46 17° SSW 09:42:58 10° S
STARLINK-1460 4.0 09:41:48 17° SSW 09:41:48 17° SSW 09:43:00 10° S
STARLINK-1423 4.1 09:41:53 16° SSW 09:41:53 16° SSW 09:43:03 10° S
STARLINK-1410 4.0 09:41:53 16° SSW 09:41:53 16° SSW 09:43:03 10° S
STARLINK-1421 4.1 09:41:53 16° SSW 09:41:53 16° SSW 09:43:03 10° S
STARLINK-1400 4.0 09:41:54 17° SSW 09:41:54 17° SSW 09:43:05 10° S
STARLINK-1454 4.0 09:41:55 16° SSW 09:41:55 16° SSW 09:43:07 10° S
STARLINK-1436 (VISORSAT) 4.0 09:41:53 17° SSW 09:41:53 17° SSW 09:43:09 10° S
STARLINK-1458 4.0 09:42:00 17° SSW 09:42:00 17° SSW 09:43:12 10° S
STARLINK-1405 4.1 09:42:04 16° SSW 09:42:04 16° SSW 09:43:12 10° S
STARLINK-1407 4.0 09:42:03 16° SSW 09:42:03 16° SSW 09:43:14 10° S
STARLINK-1445 4.0 09:42:01 17° SSW 09:42:01 17° SSW 09:43:14 10° S
STARLINK-1446 4.0 09:42:04 16° SSW 09:42:04 16° SSW 09:43:17 10° S
STARLINK-1439 4.1 09:42:08 16° SSW 09:42:08 16° SSW 09:43:17 10° S
STARLINK-1370 4.0 09:42:06 16° SSW 09:42:06 16° SSW 09:43:18 10° S
STARLINK-1409 4.0 09:42:08 16° SSW 09:42:08 16° SSW 09:43:19 10° S
STARLINK-1455 4.1 09:42:11 16° SSW 09:42:11 16° SSW 09:43:21 10° S
STARLINK-1456 4.0 09:42:09 16° SSW 09:42:09 16° SSW 09:43:22 10° S
STARLINK-1451 4.0 09:42:09 16° SSW 09:42:09 16° SSW 09:43:22 10° S
STARLINK-1457 4.0 09:42:09 17° SSW 09:42:09 17° SSW 09:43:23 10° S
STARLINK-1447 4.0 09:42:10 17° SSW 09:42:10 17° SSW 09:43:23 10° S
STARLINK-1441 4.0 09:42:12 17° SSW 09:42:12 17° SSW 09:43:26 10° S
STARLINK-1437 4.0 09:42:14 17° SSW 09:42:14 17° SSW 09:43:28 10° S
STARLINK-1418 4.0 09:42:17 16° SSW 09:42:17 16° SSW 09:43:30 10° S
STARLINK-1351 4.0 09:42:17 17° SSW 09:42:17 17° SSW 09:43:30 10° S
STARLINK-1443 4.0 09:42:16 17° SSW 09:42:16 17° SSW 09:43:31 10° S
STARLINK-1403 4.0 09:42:17 17° SSW 09:42:17 17° SSW 09:43:31 10° S
STARLINK-1434 4.0 09:42:17 17° SSW 09:42:17 17° SSW 09:43:31 10° S
STARLINK-1442 4.0 09:42:19 17° SSW 09:42:19 17° SSW 09:43:34 10° S
STARLINK-1433 4.0 09:42:21 16° SSW 09:42:21 16° SSW 09:43:34 10° S
STARLINK-1448 4.0 09:42:21 17° SSW 09:42:21 17° SSW 09:43:36 10° S
STARLINK-1449 4.0 09:42:25 17° SSW 09:42:25 17° SSW 09:43:40 10° S
STARLINK-1438 4.0 09:42:27 16° SSW 09:42:27 16° SSW 09:43:40 10° S
STARLINK-1411 4.0 09:42:35 16° SSW 09:42:35 16° SSW 09:43:49 10° S
STARLINK-1412 4.0 09:42:35 16° SSW 09:42:35 16° SSW 09:43:50 10° S
STARLINK-1035 4.1 09:38:56 15° WSW 09:42:08 48° NW 09:46:09 10° NNE
Cosmos 158 Rocket 3.9 09:37:22 10° SSW 09:42:26 85° WNW 09:47:25 10° NNE
ATLAS 5 CENTAUR R/B 1.4 09:39:18 15° SW 09:42:35 66° WNW 09:46:54 10° NNE
Lacrosse 5 rocket 2.3 09:40:12 14° WSW 09:43:16 34° NW 09:46:51 10° NNE
ARIANE 5 R/B 4.2 09:40:28 10° NNW 09:43:39 17° WNW 09:46:43 10° WSW
Meteor 1-26 Rocket 4.3 09:41:00 10° N 09:46:55 77° W 09:52:54 10° S
STARLINK-1032 4.3 09:43:41 13° WSW 09:47:06 43° NW 09:51:04 10° NNE
H-2A R/B 2.8 09:43:39 10° SSW 09:47:38 33° W 09:51:40 10° NNW
Cosmos 2344 3.6 09:40:23 12° SW 09:47:42 68° WNW 09:55:20 10° NNE
Cosmos 1461 4.3 09:43:39 10° NNW 09:48:15 50° ENE 09:52:49 10° SE
Cosmos 1151 Rocket 3.7 09:44:24 10° NNW 09:48:24 35° W 09:52:21 10° SSW
STARLINK-1037 4.4 09:46:35 12° WSW 09:50:07 40° NW 09:54:01 10° NNE
STARLINK-1011 4.5 09:48:29 12° WSW 09:52:06 39° NW 09:56:01 10° NNE
deb Chang Zheng 4 3.6 09:48:05 10° N 09:52:17 59° WNW 09:56:27 10° SSW
Cosmos 1727 Rocket 4.3 09:46:44 10° NNW 09:52:33 45° W 09:58:22 10° SSW
ADEOS 3.8 09:48:25 10° NNE 09:53:38 77° ESE 09:58:50 10° S
Cosmos 1680 Rocket 3.7 09:48:45 10° SSW 09:53:53 56° WNW 09:59:05 10° N
USA 234 4.1 09:50:16 10° NE 09:56:30 46° SE 10:02:42 10° SSW
CZ-4C R/B 4.4 09:56:06 10° SSW 09:58:57 22° W 10:01:50 10° NW
Cosmos 1844 4.1 09:55:43 10° NW 10:01:08 42° WSW 10:06:29 10° S
Cosmos 1515 Rocket 3.9 09:57:23 10° NNW 10:01:33 45° W 10:05:39 10° SSW
SL-24 R/B - RUBIN 2 4.4 09:56:52 10° SW 10:02:26 71° WNW 10:08:45 10° NNE
Shenzhou-11 Module 4.2 10:01:28 10° NNW 10:03:23 20° NNE 10:05:19 10° ENE
Cosmos 1346 Rocket 3.1 09:59:32 10° SSW 10:03:25 50° W 10:07:17 10° N
Cosmos 1980 3.7 09:58:25 10° SSW 10:04:03 74° WNW 10:09:43 10° NNE
Sich 1 3.7 10:00:19 10° S 10:04:32 58° E 10:08:45 10° NNE
STARLINK-1042 4.3 10:04:42 10° SSW 10:08:41 50° SE 10:12:42 10° NE
FALCON 9 DEB 3.2 10:06:52 10° NW 10:10:16 56° SW 10:13:40 10° SSE
